Weather History for Enid, OK

Change the Weather History Date:

Thursday, November 24, 2011

  Actual Average Record
Temperature  
Mean Temperature 52 °F -  
Max Temperature 66 °F 53 °F 69 °F (2010)
Min Temperature 37 °F 36 °F 19 °F (2003)
Degree Days  
Heating Degree Days 14    
Growing Degree Days 2 (Base 50)    
Moisture  
Dew Point 42 °F    
Average Humidity 88    
Maximum Humidity 100    
Minimum Humidity 60    
Precipitation  
Precipitation 0.00 in - - ()
Sea Level Pressure  
Sea Level Pressure 30.10 in    
Wind  
Wind Speed 5 mph (SSE)    
Max Wind Speed 23 mph    
Max Gust Speed 29 mph    
Visibility 8 miles    
Events      
Averages and records for this station are not official NWS values.
T = Trace of Precipitation, MM = Missing Value Source: NWS Daily Summary

Daily Weather History Graph

Daily Weather History Graph

Search for Another Location

Airport:

Trip Planner

Search our weather history database for the weather conditions in past years. The results will help you decide how hot, cold, wet, or windy it might be!

Date:

Astronomy

Nov. 24, 2011 Rise Set
Actual Time 7:17 AM CST 5:18 PM CST
Civil Twilight 6:49 AM CST 5:46 PM CST
Nautical Twilight 6:17 AM CST 6:17 PM CST
Astronomical Twilight 5:46 AM CST 6:48 PM CST
Moon 6:36 AM CST (11/24) 4:51 PM CST (11/24)
Length of Visible Light 10h 56m
Length of Day
10h 00m
Waning Crescent, 0% of the Moon is Illuminated
Nov 24
Waning Crescent
Nov 25
New
Dec 2
First Quarter
Dec 10
Full
Dec 17
Last Quarter

Hourly Weather History & Observations

Time (CST) Temp. Windchill Dew Point Humidity Pressure Visibility Wind Dir Wind Speed Gust Speed Precip Events Conditions
12:15 AM 37.4 °F - 35.6 °F 93% 30.18 in 10.0 mi Calm Calm - N/A   Clear
12:35 AM 39.2 °F - 37.4 °F 93% 30.18 in 10.0 mi Calm Calm - N/A   Clear
12:55 AM 39.2 °F - 37.4 °F 93% 30.18 in 10.0 mi Calm Calm - N/A   Clear
1:15 AM 37.4 °F - 35.6 °F 93% 30.17 in 10.0 mi Calm Calm - N/A   Clear
1:35 AM 37.4 °F - 35.6 °F 93% 30.17 in 10.0 mi Calm Calm - N/A   Clear
1:55 AM 37.4 °F - 35.6 °F 93% 30.17 in 10.0 mi Calm Calm - N/A   Clear
2:15 AM 37.4 °F - 35.6 °F 93% 30.17 in 7.0 mi Calm Calm - N/A   Clear
2:35 AM 37.4 °F - 37.4 °F 100% 30.17 in 7.0 mi Calm Calm - N/A   Clear
2:55 AM 37.4 °F - 37.4 °F 100% 30.17 in 7.0 mi Calm Calm - N/A   Clear
3:15 AM 37.4 °F - 35.6 °F 93% 30.17 in 7.0 mi Calm Calm - N/A   Clear
3:35 AM 37.4 °F - 37.4 °F 100% 30.17 in 7.0 mi Calm Calm - N/A   Clear
4:15 AM 39.2 °F - 37.4 °F 93% 30.16 in 7.0 mi Calm Calm - N/A   Clear
4:35 AM 37.4 °F - 37.4 °F 100% 30.16 in 7.0 mi Calm Calm - N/A   Clear
4:55 AM 37.4 °F - 35.6 °F 93% 30.16 in 5.0 mi Calm Calm - N/A   Clear
8:50 AM 48.2 °F - 46.4 °F 93% 30.19 in 5.0 mi South 11.5 mph - N/A   Partly Cloudy
10:50 AM 57.2 °F - 50.0 °F 77% 30.17 in 7.0 mi South 23.0 mph 28.8 mph N/A   Mostly Cloudy
12:50 PM 62.6 °F - 51.8 °F 68% 30.10 in 7.0 mi South 20.7 mph 26.5 mph N/A   Partly Cloudy
2:50 PM 66.2 °F - 51.8 °F 60% 30.06 in 10.0 mi South 13.8 mph 26.5 mph N/A   Partly Cloudy
3:50 PM 66.2 °F - 51.8 °F 60% 30.04 in 10.0 mi South 13.8 mph 25.3 mph N/A   Partly Cloudy
6:50 PM 55.4 °F - 48.2 °F 77% 30.01 in 10.0 mi SSE 17.3 mph - N/A   Clear
7:50 PM 53.6 °F - 48.2 °F 82% 30.01 in 10.0 mi SSE 17.3 mph - N/A   Clear
8:15 PM 51.8 °F - 46.4 °F 82% 30.01 in 10.0 mi South 16.1 mph - N/A   Clear
8:35 PM 50.0 °F - 46.4 °F 87% 30.01 in 7.0 mi SSE 13.8 mph - N/A   Clear
8:50 PM 50.0 °F - 46.4 °F 87% 30.00 in 10.0 mi SSE 13.8 mph - N/A   Clear
8:55 PM 50.0 °F - 46.4 °F 87% 30.00 in 7.0 mi SSE 17.3 mph - N/A   Clear
9:15 PM 50.0 °F - 46.4 °F 87% 30.00 in 7.0 mi South 19.6 mph - N/A   Clear
9:35 PM 48.2 °F - 44.6 °F 87% 29.99 in 5.0 mi South 16.1 mph 21.9 mph N/A   Clear
9:55 PM 46.4 °F 39.8 °F 44.6 °F 93% 30.00 in 5.0 mi South 16.1 mph - N/A   Clear
10:15 PM 46.4 °F 40.7 °F 44.6 °F 93% 30.01 in 4.0 mi South 12.7 mph - N/A   Clear
10:35 PM 46.4 °F 39.8 °F 44.6 °F 93% 30.00 in 4.0 mi South 16.1 mph - N/A   Scattered Clouds
11:55 PM 50.0 °F - 46.4 °F 87% 30.00 in 4.0 mi South 18.4 mph 21.9 mph N/A   Overcast